{"data":{"norad_id":59377,"intl_designator":"2024-062D","name":"STARLINK-31716","alt_names":[],"object_type":"PAYLOAD","status":"ACTIVE","operator":null,"country":"US","launch_date":"2024-04-02","launch_site_code":"AFWTR","launch_vehicle":null,"mission":null,"orbit_class":"UNKNOWN","rcs_meters":null,"size_class":null,"mass_kg":null,"dimensions":null,"purposes":["comms"],"wikipedia_slug":null,"has_3d_model":false,"image_url":null,"decayed_at":null,"tle_current":{"epoch":"2026-05-25T05:17:42.157248Z","epoch_age_seconds":53084,"freshness":"FRESH","line1":"1 59377U 24062D   26145.22062682  .00000281  00000+0  21602-4 0  9996","line2":"2 59377  53.1592 211.5375 0000848  99.1150 260.9946 15.30194936122021","mean_motion":15.30194936,"eccentricity":8.48e-5,"inclination_deg":53.1592,"raan_deg":211.5375,"arg_perigee_deg":99.115,"mean_anomaly_deg":260.9946,"bstar":2.1602e-5,"rev_number":12202,"period_min":94.105657137007,"perigee_km":474.64902411455,"apogee_km":475.81135518991,"semimajor_km":6853.3671896522,"source":"CELESTRAK","updated_at":"2026-05-25T13:38:18.913806Z"}}}